DW5678 Kavala GR current weather conditions

sailwx.info

Wind from 268 at 0 knots gusting 6

Air temperature 17.2° C
Dewpoint 5.8° C

Last reported at 2017-Mar-29 08:45 UTC.
Time now 2017-Mar-29 09:18 UTC

Location: N 40°56' E 024°24'.
View on Google Maps.

See reports from other nearby stations

  
Tides and Currents Weather Stations Pressure Air Temp Water Temp Dewpoint Dewpoint Depression Visibility Wind Speed Wind Dir Waves Ship Positions
date/time (UTC)wind fromknots sea level pressurealtimeterstation pressurevisibilityair tempwater tempwave heightnotes
2017-Mar-29 08:45 268 0 gusting 6 17.2
2017-Mar-29 08:30 256 2 gusting 6 16.7
2017-Mar-29 07:45 215 0 gusting 5 16.7
2017-Mar-29 07:30 274 15.6
2017-Mar-29 07:00 242 14.4
2017-Mar-29 06:30 262 13.9
2017-Mar-29 05:45 265 11.7
2017-Mar-29 05:15 265 10.6
2017-Mar-29 05:00 265 10.0
2017-Mar-29 04:45 265 10.0
2017-Mar-29 04:15 265 10.0
2017-Mar-29 04:00 265 10.0
2017-Mar-29 03:45 265 10.0
2017-Mar-29 03:15 265 10.0
2017-Mar-29 02:45 224 10.6
2017-Mar-29 02:30 203 10.6
2017-Mar-29 02:15 203 10.6
2017-Mar-29 02:00 203 10.0
2017-Mar-29 01:00 203 10.6
2017-Mar-29 00:45 203 10.0
2017-Mar-29 00:30 203 10.0
2017-Mar-29 00:15 203 10.0
2017-Mar-29 00:00 203 10.6
2017-Mar-28 23:45 203 10.6
2017-Mar-28 23:30 203 10.6
2017-Mar-28 23:15 203 10.6
2017-Mar-28 22:45 150 10.6
2017-Mar-28 21:45 150 10.6
2017-Mar-28 21:30 150 10.6
2017-Mar-28 21:15 150 10.6
2017-Mar-28 21:00 155 10.6
2017-Mar-28 20:45 155 10.6
2017-Mar-28 20:30 155 10.6
2017-Mar-28 20:00 155 10.6
2017-Mar-28 19:30 154 11.1
2017-Mar-28 19:15 154 11.1
2017-Mar-28 19:00 154 11.1
2017-Mar-28 18:30 155 11.7
2017-Mar-28 17:45 155 12.2
2017-Mar-28 17:15 155 12.2
2017-Mar-28 17:00 155 12.8
2017-Mar-28 16:30 155 12.8
2017-Mar-28 16:15 155 13.3
2017-Mar-28 16:00 155 13.3
2017-Mar-28 15:45 153 0 gusting 1 13.3
2017-Mar-28 15:30 168 0 gusting 1 13.3
2017-Mar-28 15:15 142 0 gusting 2 13.3
2017-Mar-28 15:00 149 0 gusting 4 13.9
2017-Mar-28 14:30 223 0 gusting 4 13.9
2017-Mar-28 14:15 138 0 gusting 4 13.9
2017-Mar-28 13:45 211 1 gusting 6 13.9
2017-Mar-28 13:30 200 1 gusting 6 13.3
2017-Mar-28 13:15 209 0 gusting 6 13.9
2017-Mar-28 13:00 187 0 gusting 6 14.4
2017-Mar-28 12:45 181 1 gusting 6 14.4
2017-Mar-28 12:15 210 0 gusting 6 14.4
2017-Mar-28 12:00 198 1 gusting 6 14.4
2017-Mar-28 11:30 217 1 gusting 6 13.9
2017-Mar-28 11:15 227 0 gusting 6 13.3
2017-Mar-28 11:00 223 0 gusting 6 13.9
2017-Mar-28 10:45 233 1 gusting 5 13.3
2017-Mar-28 10:30 213 1 gusting 6 12.8
2017-Mar-28 10:15 122 2 gusting 6 12.2
2017-Mar-28 09:45 198 0 gusting 5 12.8
2017-Mar-28 09:15 241 2 gusting 6 13.3
2017-Mar-28 09:00 153 1 gusting 5 12.2
2017-Mar-28 08:45 142 2 gusting 5 12.2
2017-Mar-28 08:15 147 0 gusting 4 11.1
2017-Mar-28 08:00 130 1 gusting 5 10.6
2017-Mar-28 07:45 146 1 gusting 4 10.6
2017-Mar-28 07:30 164 0 gusting 4 10.0
2017-Mar-28 07:15 122 0 gusting 4 10.0
2017-Mar-28 07:00 120 0 gusting 2 9.4
2017-Mar-28 06:45 086 0 gusting 2 9.4
2017-Mar-28 06:30 056 0 gusting 4 8.9
2017-Mar-28 06:15 170 8.9
2017-Mar-28 05:45 253 8.3
2017-Mar-28 05:30 130 7.8
2017-Mar-28 05:00 355 7.2
2017-Mar-28 04:45 355 7.2
2017-Mar-28 04:30 012 0 gusting 4 6.7
2017-Mar-28 04:15 339 6.7
2017-Mar-28 04:00 006 7.2
2017-Mar-28 03:30 355 4 gusting 8 6.7
2017-Mar-28 03:15 003 0 gusting 6 6.7
2017-Mar-28 03:00 342 7.2
2017-Mar-28 02:30 264 7.2
2017-Mar-28 02:15 264 7.2
2017-Mar-28 02:00 264 7.2
2017-Mar-28 01:45 264 0 gusting 2 7.8
2017-Mar-28 01:15 012 7.8
2017-Mar-28 01:00 012 7.8
2017-Mar-28 00:30 012 7.8
2017-Mar-28 00:15 012 7.8
2017-Mar-28 00:00 012 7.8
2017-Mar-27 23:45 012 8.3
2017-Mar-27 23:30 012 8.3
2017-Mar-27 23:00 012 8.3
2017-Mar-27 22:45 012 8.3
2017-Mar-27 22:30 012 8.3
2017-Mar-27 22:15 012 8.3
2017-Mar-27 21:45 023 8.9
2017-Mar-27 21:30 024 8.9
2017-Mar-27 21:00 143 10.0
2017-Mar-27 20:45 143 10.0
2017-Mar-27 20:15 143 10.0
2017-Mar-27 20:00 157 10.0
2017-Mar-27 18:00 355 9.4
2017-Mar-27 17:30 355 10.0
2017-Mar-27 17:15 355 10.0
2017-Mar-27 16:45 355 10.6
2017-Mar-27 16:30 144 10.6
2017-Mar-27 16:15 144 0 gusting 1 10.6
2017-Mar-27 16:00 144 10.6
2017-Mar-27 15:30 223 0 gusting 5 11.1
2017-Mar-27 15:15 121 1 gusting 4 10.6
2017-Mar-27 15:00 124 11.1
2017-Mar-27 14:30 183 10.6
2017-Mar-27 14:15 123 1 gusting 5 10.6
2017-Mar-27 14:00 253 1 gusting 5 11.1
2017-Mar-27 13:45 092 1 gusting 5 11.1
2017-Mar-27 13:30 118 0 gusting 5 10.6
2017-Mar-27 13:15 127 2 gusting 6 10.6
2017-Mar-27 13:00 053 0 gusting 7 11.1
2017-Mar-27 12:45 078 1 gusting 6 11.7
2017-Mar-27 12:30 131 0 gusting 6 11.7
2017-Mar-27 12:15 114 2 gusting 6 11.1
2017-Mar-27 12:00 115 1 gusting 6 10.6
2017-Mar-27 11:45 163 0 gusting 6 10.6
2017-Mar-27 11:15 085 1 gusting 6 10.0
2017-Mar-27 11:00 150 2 gusting 8 10.6
2017-Mar-27 10:45 150 1 gusting 7 10.6
2017-Mar-27 10:30 117 1 gusting 7 10.6
2017-Mar-27 10:15 179 1 gusting 7 11.1
2017-Mar-27 10:00 141 2 gusting 7 10.6
2017-Mar-27 09:45 089 1 gusting 8 10.0
2017-Mar-27 09:30 120 1 gusting 7 10.6
2017-Mar-27 09:15 077 3 gusting 7 9.4
2017-Mar-27 09:00 098 0 gusting 6 9.4